Location: Ashton River Estates
(39.1762°N, 77.0261°W)
Time: 23:49:30
(UTC+00:00)

In-Cosmos 22 Rocket - Pass Details

Date: 29 October 2020
Orbit: 791 x 888 km, 81.2° (Epoch: 03 December)

Event Time Altitude Azimuth Distance (km) Brightness Sun altitude
Rises 22:39:42 0° 358° (N) 3,316 7.2 -6.4°
Reaches altitude 10° 22:42:12 10° 5° (N) 2,391 6.4 -6.9°
Maximum altitude 22:47:19 42° 76° (ENE) 1,146 4.5 -7.8°
Drops below altitude 10° 22:52:31 10° 147° (SSE) 2,431 6.4 -8.8°
Sets 22:55:04 0° 154° (SSE) 3,377 7.2 -9.3°
